TimeEDT,TemperatureF,Dew PointF,Humidity,Sea Level PressureIn,VisibilityMPH,Wind Direction,Wind SpeedMPH,Gust SpeedMPH,PrecipitationIn,Events,Conditions,WindDirDegrees,DateUTC
12:11 AM,57.2,55.4,94,29.96,0.8,Calm,Calm,-,N/A,,Mist,0,2013-05-21 04:11:00
12:19 AM,57.2,55.4,94,29.95,0.8,Calm,Calm,-,N/A,,Scattered Clouds,0,2013-05-21 04:19:00
12:27 AM,57.2,55.4,94,29.95,1.5,Calm,Calm,-,N/A,,Mostly Cloudy,0,2013-05-21 04:27:00
12:45 AM,57.2,55.4,94,29.95,3.0,Calm,Calm,-,N/A,,Mostly Cloudy,0,2013-05-21 04:45:00
12:53 AM,55.9,55.0,97,29.95,2.0,Calm,Calm,-,N/A,,Overcast,0,2013-05-21 04:53:00
1:06 AM,57.2,55.4,94,29.94,4.0,Calm,Calm,-,N/A,,Overcast,0,2013-05-21 05:06:00
1:53 AM,57.9,57.0,97,29.94,4.0,Calm,Calm,-,N/A,,Overcast,0,2013-05-21 05:53:00
2:44 AM,57.2,57.2,100,29.88,2.5,Calm,Calm,-,N/A,,Overcast,0,2013-05-21 06:44:00
2:53 AM,57.9,57.0,97,29.88,3.0,Calm,Calm,-,N/A,,Overcast,0,2013-05-21 06:53:00
3:00 AM,57.2,55.4,94,29.88,2.5,Calm,Calm,-,N/A,,Overcast,0,2013-05-21 07:00:00
3:09 AM,57.2,57.2,100,29.88,5.0,Calm,Calm,-,N/A,,Overcast,0,2013-05-21 07:09:00
3:26 AM,57.2,57.2,100,29.88,5.0,Calm,Calm,-,N/A,,Overcast,0,2013-05-21 07:26:00
3:48 AM,57.2,57.2,100,29.86,5.0,Calm,Calm,-,N/A,,Overcast,0,2013-05-21 07:48:00
3:53 AM,57.9,57.0,97,29.86,4.0,Calm,Calm,-,N/A,,Overcast,0,2013-05-21 07:53:00
4:18 AM,57.2,57.2,100,29.86,4.0,WSW,3.5,-,N/A,,Overcast,240,2013-05-21 08:18:00
4:26 AM,57.2,57.2,100,29.87,2.5,SSW,3.5,-,0.06,Rain-Thunderstorm,Light Thunderstorms and Rain,200,2013-05-21 08:26:00
4:44 AM,59.0,57.2,94,29.85,3.0,NNE,4.6,-,0.15,Rain-Thunderstorm,Rain,20,2013-05-21 08:44:00
4:53 AM,59.0,57.9,96,29.83,3.0,NE,4.6,-,0.17,Rain,Light Rain,50,2013-05-21 08:53:00
5:02 AM,59.0,57.2,94,29.83,5.0,Calm,Calm,-,0.00,Rain,Light Rain,0,2013-05-21 09:02:00
5:10 AM,59.0,57.2,94,29.83,4.0,Calm,Calm,-,0.00,Rain,Light Rain,0,2013-05-21 09:10:00
5:25 AM,57.2,57.2,100,29.83,1.8,ENE,3.5,-,0.00,,Overcast,70,2013-05-21 09:25:00
5:32 AM,57.2,57.2,100,29.84,0.5,ENE,3.5,-,0.00,Fog,Fog,70,2013-05-21 09:32:00
5:53 AM,57.9,57.0,97,29.83,0.5,East,3.5,-,0.00,Fog,Fog,90,2013-05-21 09:53:00
6:53 AM,59.0,57.9,96,29.85,0.2,Calm,Calm,-,N/A,Fog,Fog,0,2013-05-21 10:53:00
7:53 AM,59.0,59.0,100,29.86,0.5,Calm,Calm,-,N/A,Fog,Fog,0,2013-05-21 11:53:00
8:05 AM,59.0,59.0,100,29.86,1.0,Calm,Calm,-,N/A,,Overcast,0,2013-05-21 12:05:00
8:21 AM,60.8,59.0,94,29.87,3.0,North,3.5,-,N/A,,Overcast,360,2013-05-21 12:21:00
8:53 AM,61.0,60.1,97,29.89,7.0,Variable,3.5,-,N/A,,Overcast,0,2013-05-21 12:53:00
9:53 AM,60.1,57.9,93,29.92,8.0,NNE,13.8,18.4,N/A,,Overcast,20,2013-05-21 13:53:00
10:53 AM,57.0,54.0,89,29.95,8.0,North,18.4,-,N/A,,Overcast,360,2013-05-21 14:53:00
11:01 AM,57.2,53.6,88,29.95,8.0,North,15.0,27.6,N/A,,Overcast,360,2013-05-21 15:01:00
11:53 AM,57.9,54.0,87,29.96,10.0,North,18.4,-,N/A,,Overcast,350,2013-05-21 15:53:00
12:53 PM,60.1,53.1,78,29.96,10.0,North,11.5,-,N/A,,Overcast,350,2013-05-21 16:53:00
1:53 PM,62.1,53.1,72,29.96,10.0,North,12.7,-,N/A,,Overcast,350,2013-05-21 17:53:00
2:53 PM,63.0,54.0,72,29.95,10.0,NE,3.5,-,N/A,,Overcast,40,2013-05-21 18:53:00
3:16 PM,62.6,53.6,72,29.93,10.0,ENE,8.1,-,N/A,,Overcast,70,2013-05-21 19:16:00
3:53 PM,64.9,55.0,70,29.92,10.0,NE,9.2,-,N/A,,Scattered Clouds,50,2013-05-21 19:53:00
4:53 PM,66.0,54.0,65,29.90,10.0,NE,9.2,-,N/A,,Partly Cloudy,40,2013-05-21 20:53:00
5:53 PM,64.0,54.0,70,29.89,10.0,NNE,6.9,-,N/A,,Partly Cloudy,30,2013-05-21 21:53:00
6:53 PM,63.0,55.0,75,29.87,10.0,NNE,6.9,-,0.00,Rain,Light Rain,20,2013-05-21 22:53:00
7:53 PM,62.1,55.9,80,29.88,10.0,NNW,9.2,-,0.00,Thunderstorm,Mostly Cloudy,340,2013-05-21 23:53:00
8:10 PM,60.8,55.4,82,29.94,10.0,NW,18.4,25.3,0.01,Rain-Thunderstorm,Light Thunderstorms and Rain,310,2013-05-22 00:10:00
8:21 PM,59.0,57.2,94,29.96,1.8,NNW,16.1,27.6,0.25,Rain-Thunderstorm,Heavy Thunderstorms and Rain,330,2013-05-22 00:21:00
8:31 PM,59.0,55.4,88,29.89,2.5,NNE,18.4,28.8,0.35,Rain-Thunderstorm,Heavy Thunderstorms and Rain,30,2013-05-22 00:31:00
8:38 PM,57.2,55.4,94,29.86,5.0,NNE,16.1,28.8,0.36,Rain-Thunderstorm,Light Rain,30,2013-05-22 00:38:00
8:53 PM,57.9,55.9,93,29.83,8.0,NE,11.5,18.4,0.38,Rain-Thunderstorm,Light Rain,50,2013-05-22 00:53:00
9:06 PM,57.2,55.4,94,29.85,10.0,North,5.8,-,0.00,Rain,Light Rain,10,2013-05-22 01:06:00
9:33 PM,57.2,55.4,94,29.83,9.0,SW,4.6,-,0.00,,Mostly Cloudy,230,2013-05-22 01:33:00
9:43 PM,57.2,55.4,94,29.83,10.0,WSW,4.6,-,0.00,,Mostly Cloudy,240,2013-05-22 01:43:00
9:53 PM,57.0,55.9,96,29.83,10.0,SW,4.6,-,0.00,,Mostly Cloudy,230,2013-05-22 01:53:00
10:53 PM,57.9,55.9,93,29.81,10.0,WSW,3.5,-,N/A,,Scattered Clouds,250,2013-05-22 02:53:00
11:53 PM,57.0,55.9,96,29.84,10.0,NW,6.9,-,0.00,,Mostly Cloudy,310,2013-05-22 03:53:00